FW9620 Weather Reports


Display with metric or nautical units.
time (UTC)temp
F
wind
direction
speed
MPH
gust
MPH
rain 1hr
in
rain 24hr
in
rain mn
in
humidity
%
barometer
mb
20260510174552 69 355 7.0 13.0 0.00 0.00 0.00 42 1019.7
20260510173057 68 46 8.0 15.0 0.00 0.00 0.00 40 1019.6
20260510171600 67 30 9.0 16.0 0.00 0.00 0.00 40 1019.6
20260510170055 67 32 11.0 15.0 0.00 0.00 0.00 42 1019.5
20260510164558 67 51 8.0 18.0 0.00 0.00 0.00 42 1019.4
20260510163116 67 9 10.0 18.0 0.00 0.00 0.00 43 1019.4
20260510161601 66 51 10.0 16.0 0.00 0.00 0.00 43 1019.4
20260510154555 64 41 7.0 15.0 0.00 0.00 0.00 46 1019.3
20260510153056 64 66 7.0 18.0 0.00 0.00 0.00 48 1019.2
20260510151552 63 43 10.0 16.0 0.00 0.00 0.00 46 1019.4
20260510144602 63 29 6.0 16.0 0.00 0.00 0.00 52 1019.6
20260510143108 62 29 7.0 16.0 0.00 0.00 0.00 54 1019.6
20260510141551 62 24 10.0 17.0 0.00 0.00 0.00 52 1019.2
20260510140053 61 17 8.0 14.0 0.00 0.00 0.00 57 1019.2
20260510134600 60 43 10.0 17.0 0.00 0.00 0.00 56 1018.5
20260510133052 59 36 7.0 14.0 0.00 0.00 0.00 62 1018.2
20260510131554 59 19 9.0 16.0 0.00 0.00 0.00 63 1017.9
20260510130058 59 28 6.0 13.0 0.00 0.00 0.00 68 1017.7
20260510124556 59 23 7.0 15.0 0.00 0.00 0.00 71 1017.5
20260510123053 58 36 5.0 9.0 0.00 0.00 0.00 77 1017.3
20260510121552 57 27 5.0 10.0 0.00 0.00 0.00 82 1017.0
20260510120053 57 39 6.0 12.0 0.00 0.00 0.00 84 1016.7
20260510114555 57 32 5.0 11.0 0.00 0.00 0.00 85 1016.5
20260510113056 57 40 4.0 8.0 0.00 0.00 0.00 86 1016.3
20260510111557 57 30 4.0 8.0 0.00 0.00 0.00 86 1016.0
20260510110050 57 28 4.0 7.0 0.00 0.00 0.00 86 1016.2
20260510104558 57 20 3.0 8.0 0.00 0.00 0.00 85 1016.1
20260510103053 58 24 4.0 10.0 0.00 0.00 0.00 85 1015.8
20260510101552 58 13 4.0 9.0 0.00 0.00 0.00 84 1015.5
20260510100051 58 31 3.0 5.0 0.00 0.00 0.00 84 1015.2
20260510094552 58 34 2.0 8.0 0.00 0.01 0.00 84 1015.0
20260510093106 59 14 4.0 8.0 0.00 0.01 0.00 82 1014.8
20260510091557 59 25 4.0 9.0 0.00 0.01 0.00 81 1014.5
20260510090052 60 42 3.0 6.0 0.00 0.01 0.00 80 1014.3
20260510084553 60 31 2.0 8.0 0.00 0.01 0.00 79 1014.2
20260510083055 60 36 1.0 4.0 0.00 0.01 0.00 79 1014.2
20260510081621 60 36 3.0 5.0 0.00 0.01 0.00 78 1014.0
20260510080051 61 0 0.0 4.0 0.00 0.01 0.00 76 1013.9
20260510074553 61 61 2.0 6.0 0.00 0.01 0.00 76 1013.6
20260510073101 61 24 3.0 7.0 0.00 0.01 0.00 75 1013.7
20260510071558 61 34 3.0 5.0 0.00 0.01 0.00 75 1013.8
20260510070051 60 360 1.0 4.0 0.00 0.01 0.00 77 1013.9
20260510064559 59 0 0.0 0.0 0.00 0.01 0.00 80 1013.4
20260510063052 60 0 0.0 0.0 0.00 0.01 0.00 81 1013.4
20260510061554 61 0 0.0 0.0 0.00 0.01 0.00 80 1013.4
20260510060054 61 0 0.0 0.0 0.00 0.01 0.00 79 1013.3
20260510054554 62 0 0.0 0.0 0.00 0.02 0.00 77 1013.1
20260510053115 62 0 0.0 0.0 0.00 0.02 0.00 77 1013.3
20260510051606 63 0 0.0 0.0 0.00 0.02 0.00 75 1013.5
20260510050110 64 0 0.0 0.0 0.00 0.02 0.00 74 1013.3
20260510044607 64 0 0.0 0.0 0.00 0.02 0.02 71 1012.9
20260510041605 65 0 0.0 4.0 0.00 0.02 0.02 68 1012.9
20260510040057 64 360 3.0 10.0 0.00 0.02 0.02 69 1012.8
20260510034557 63 333 8.0 12.0 0.00 0.02 0.02 71 1012.4
20260510033108 63 0 0.0 0.0 0.00 0.02 0.02 74 1011.9
20260510031552 63 0 0.0 0.0 0.00 0.02 0.02 73 1011.6
20260510030112 64 0 0.0 0.0 0.00 0.02 0.02 73 1011.7
20260510024555 65 0 0.0 0.0 0.00 0.16 0.02 73 1011.5
20260510023055 66 0 0.0 0.0 0.00 0.16 0.02 72 1011.1
20260510021555 67 0 0.0 0.0 0.00 0.16 0.02 70 1010.8
20260510020054 68 0 0.0 0.0 0.00 0.16 0.02 66 1010.3
20260510014602 70 0 0.0 0.0 0.00 0.37 0.02 67 1009.9
20260510013055 72 0 0.0 0.0 0.00 0.37 0.02 63 1009.9
20260510011555 74 0 0.0 0.0 0.00 0.37 0.02 56 1009.6
20260510010057 75 0 0.0 0.0 0.00 0.37 0.02 53 1009.5
20260510004553 76 0 0.0 5.0 0.00 0.37 0.02 51 1009.3
20260510003102 77 170 2.0 5.0 0.00 0.37 0.02 50 1009.3
20260510001552 77 165 1.0 4.0 0.00 0.37 0.02 47 1009.3
20260510000057 78 200 0.0 2.0 0.00 0.37 0.02 46 1009.3
20260509234558 79 0 0.0 3.0 0.00 0.37 0.02 45 1009.3
20260509233101 80 220 3.0 7.0 0.00 0.37 0.02 43 1009.3
20260509231555 81 223 3.0 7.0 0.00 0.37 0.02 41 1009.3
20260509230053 80 0 3.0 9.0 0.00 0.37 0.02 40 1009.2
20260509224553 80 227 3.0 10.0 0.00 0.37 0.02 37 1009.2
20260509223058 81 259 3.0 10.0 0.00 0.37 0.02 34 1009.2
20260509221549 83 235 4.0 8.0 0.00 0.37 0.02 33 1009.2
20260509220051 83 239 4.0 8.0 0.00 0.37 0.02 32 1009.2
20260509214553 83 235 7.0 11.0 0.00 0.37 0.02 31 1009.2
20260509213055 83 278 4.0 13.0 0.00 0.37 0.02 33 1009.3
20260509211553 83 244 5.0 12.0 0.00 0.37 0.02 37 1009.5
20260509210055 84 295 3.0 12.0 0.00 0.37 0.02 33 1009.5
20260509204556 83 250 6.0 13.0 0.00 0.37 0.02 35 1009.8
20260509203106 83 277 5.0 13.0 0.00 0.37 0.02 38 1009.9
20260509201605 82 245 10.0 15.0 0.00 0.37 0.02 38 1010.1
20260509200106 82 267 9.0 16.0 0.00 0.37 0.02 37 1010.2
20260509194558 82 225 9.0 14.0 0.00 0.37 0.02 38 1010.1
20260509193110 82 267 10.0 17.0 0.00 0.37 0.02 35 1010.2
20260509191600 82 246 6.0 14.0 0.00 0.37 0.02 36 1010.3
20260509190059 82 272 6.0 12.0 0.00 0.37 0.02 37 1010.3
20260509184604 81 248 10.0 15.0 0.00 0.37 0.02 39 1010.4
20260509183053 80 258 7.0 16.0 0.00 0.37 0.02 41 1010.3
20260509181555 80 261 7.0 14.0 0.00 0.37 0.02 40 1010.4
20260509180055 80 279 5.0 13.0 0.00 0.37 0.02 45 1010.5